GFSFLT2_250_spd_156.txt.gz
Wind_Speed
40 42 39 39 40 41 40 38 36 37 37 36 35 34 33 35 36 38 41 42 43 44 43 42 41 42 37 33 28 29 30 30
44 41 39 39 40 38 36 39 40 38 34 36 36 38 37 36 36 35 36 38 40 45 49 46 44 42 40 36 30 29 29 29
46 45 44 43 42 42 41 42 37 35 39 41 41 41 40 39 41 46 44 44 42 43 44 47 49 44 41 38 34 32 30 31
50 49 50 48 44 43 41 39 43 44 46 45 47 45 48 52 51 50 48 48 46 46 47 47 47 49 46 43 37 34 31 33
47 49 50 52 52 50 51 52 52 53 53 53 53 53 54 55 57 57 56 53 54 54 53 49 47 47 48 44 41 36 33 36
43 47 49 49 51 53 54 55 56 58 57 57 58 58 57 55 58 60 59 61 56 53 54 49 46 47 50 47 41 38 35 36
45 46 48 52 53 56 58 60 61 62 59 57 55 58 62 62 60 59 60 59 57 55 53 52 52 48 49 48 42 39 37 34
46 48 51 53 55 57 58 60 62 63 61 66 66 64 66 69 67 66 68 68 66 63 60 57 53 51 50 49 44 42 39 38
47 50 53 54 57 59 61 63 63 67 71 74 75 77 75 73 75 74 75 73 71 68 63 62 59 50 50 48 45 44 43 39
51 55 57 59 62 64 67 69 73 75 77 80 82 83 82 82 84 85 85 80 76 70 68 64 62 52 49 48 45 46 45 40
61 64 67 68 72 74 76 80 81 83 86 87 88 91 90 91 90 87 85 80 78 77 72 68 64 56 52 52 48 50 48 43
63 64 66 69 71 74 77 80 84 87 93 95 100 100 96 90 84 84 83 82 75 72 69 65 60 58 54 53 52 51 53 50
67 68 69 70 72 74 78 81 85 90 94 97 93 89 89 83 75 71 68 64 68 64 61 60 59 58 55 53 53 55 53 54
67 65 65 68 69 69 71 72 71 79 80 87 90 88 82 78 74 71 67 65 62 65 63 59 62 58 55 57 53 56 53 56
69 69 71 71 70 69 71 73 72 73 74 78 86 88 84 78 78 73 69 65 64 66 68 63 63 63 65 56 52 52 60 54
70 71 73 72 71 72 70 70 73 72 75 75 83 89 84 81 76 68 64 64 65 64 67 68 71 65 69 57 54 57 57 54
71 72 74 73 77 77 76 76 78 71 73 77 82 87 74 74 68 64 60 58 59 62 65 70 73 75 71 68 60 57 59 55
74 75 75 76 79 82 83 79 79 76 78 77 78 82 73 69 65 60 57 57 54 58 64 68 75 80 77 73 66 61 57 56
79 80 76 78 81 84 83 80 77 81 81 78 81 82 72 66 62 54 51 55 58 57 61 67 77 82 80 77 70 59 56 54
82 83 82 84 84 82 86 81 79 83 83 79 79 82 66 64 57 53 50 53 56 54 56 65 77 83 83 84 71 63 40 63

GFSFLT2_250_spd_159.txt.gz
Wind_Speed
41 42 43 42 40 40 40 40 39 41 41 41 39 39 37 36 32 33 33 32 29 27 30 30 35 42 45 46 45 41 33 32
46 41 41 43 43 43 41 42 44 44 42 39 42 38 35 34 36 36 33 32 34 40 38 38 37 37 38 39 44 45 39 32
46 43 40 43 45 46 47 47 48 46 46 45 43 38 41 42 43 41 39 42 42 43 42 42 40 42 44 43 39 41 42 35
49 48 45 43 44 47 47 50 51 48 50 47 41 44 47 50 51 50 50 49 49 46 46 46 46 48 44 45 43 40 39 39
49 49 48 46 45 46 47 46 46 49 51 50 53 55 57 55 56 56 54 54 53 51 49 48 50 48 48 46 41 38 39 41
51 48 46 45 45 43 44 46 46 46 48 53 56 57 58 59 58 55 54 54 57 56 57 52 50 49 51 49 43 41 39 41
47 48 46 44 42 42 44 46 47 49 51 54 56 57 59 58 57 56 62 61 61 62 60 58 55 54 56 54 50 45 42 41
42 44 45 45 45 44 45 47 49 52 54 57 60 61 63 63 64 67 71 70 70 70 69 65 62 59 59 60 59 51 44 43
47 46 45 46 49 51 55 57 59 61 63 65 67 70 71 74 76 77 77 78 79 79 76 73 71 72 67 61 59 52 50 46
51 52 51 51 54 58 60 63 66 68 69 70 71 73 76 78 80 81 84 87 85 82 83 85 80 79 75 68 63 57 52 48
53 54 55 56 58 61 63 65 65 68 69 71 72 76 77 78 79 81 84 86 88 88 81 78 79 76 73 72 64 60 54 50
55 57 58 61 62 64 64 64 66 69 69 70 69 70 73 77 80 79 77 74 75 75 73 76 72 75 75 68 68 65 57 55
56 59 60 59 58 60 63 63 64 67 68 65 66 67 70 73 77 79 81 75 72 69 63 65 71 68 69 68 68 66 57 59
68 64 62 58 57 57 60 61 64 68 68 70 68 68 72 73 77 77 79 73 72 70 63 58 62 70 66 66 64 62 58 61
67 64 65 66 64 62 61 62 63 65 68 75 76 76 76 76 79 77 79 73 71 70 63 57 56 66 70 71 66 56 62 65
71 69 69 68 67 63 65 63 67 67 70 75 76 76 79 79 78 78 83 72 67 66 61 53 53 60 64 68 72 63 63 66
72 73 72 68 68 67 68 68 72 72 76 73 75 77 79 77 77 81 82 66 59 55 55 51 51 57 62 64 71 74 70 64
72 73 72 73 72 72 72 71 76 75 76 73 76 75 77 76 80 83 82 64 59 52 55 52 50 53 60 65 69 79 75 69
77 78 78 78 78 77 77 78 79 82 79 74 76 76 76 77 81 81 79 63 59 51 47 49 51 51 55 63 69 78 82 77
83 83 82 84 83 85 82 84 88 85 86 80 77 76 74 80 80 79 73 65 62 49 44 42 47 52 53 59 71 81 86 85

GFSFLT2_250_spd_165.txt.gz
Wind_Speed
40 41 38 40 42 42 42 41 39 39 40 39 39 38 37 37 37 39 41 41 41 41 43 43 42 38 35 33 33 33 32 30
39 39 39 38 42 43 43 43 43 41 40 40 40 41 43 41 40 42 44 42 44 43 42 42 39 40 38 38 38 40 39 35
35 36 36 36 38 41 41 43 45 43 43 45 45 44 44 46 46 47 45 46 46 48 49 47 45 42 43 45 46 45 45 41
32 32 34 34 33 35 35 38 39 38 38 40 41 43 45 48 48 47 47 51 52 51 51 50 51 52 51 52 53 52 50 46
39 35 29 27 30 29 31 33 31 30 33 36 39 40 41 42 45 47 47 47 50 54 54 54 57 60 60 57 56 54 52 47
38 37 34 28 28 28 30 30 31 35 35 33 34 36 38 42 45 47 49 51 52 54 59 61 64 66 66 64 62 57 55 52
42 43 39 32 34 31 33 36 35 37 41 39 40 41 44 45 47 50 51 52 54 57 59 61 64 65 65 64 63 62 64 58
47 48 41 38 34 34 35 37 38 39 43 45 47 48 48 51 54 54 56 59 61 63 63 65 67 68 70 70 70 68 68 67
51 52 44 40 46 41 37 38 39 42 46 48 51 53 54 51 55 59 61 64 63 64 67 69 70 71 72 73 73 75 76 77
56 57 45 48 46 46 45 45 40 42 45 47 49 50 54 55 55 56 56 57 58 60 62 67 71 75 76 77 79 77 78 81
59 61 50 51 59 55 54 50 46 48 46 49 49 50 52 56 55 54 53 54 56 58 59 62 63 67 69 73 74 73 75 77
59 61 58 60 65 62 61 52 56 54 57 55 52 50 53 53 52 55 55 55 55 58 60 62 61 64 65 66 69 72 74 71
65 68 67 68 66 69 63 60 61 62 61 60 53 54 55 54 56 53 54 57 59 59 59 62 66 65 63 64 65 65 64 63
78 74 71 73 73 71 66 67 69 68 68 63 61 58 58 60 59 56 58 61 61 61 60 65 66 67 66 63 63 64 63 58
75 73 73 73 75 75 71 73 72 70 72 70 68 66 65 63 66 64 64 64 68 68 69 67 66 70 69 66 63 61 64 60
75 74 73 77 78 72 75 74 76 74 73 74 70 71 71 72 69 70 70 70 69 72 74 74 71 71 70 68 62 62 63 50
79 78 79 79 76 77 77 78 79 76 77 75 74 75 77 76 76 74 77 75 76 76 76 78 77 75 71 70 66 63 60 50
82 83 83 83 82 81 80 83 82 78 79 78 78 83 82 83 82 81 83 80 81 80 80 82 80 79 72 72 67 64 62 51
83 83 84 85 86 85 87 87 82 82 82 83 84 84 86 86 87 89 85 86 84 84 84 84 84 81 75 69 66 64 62 53
89 89 89 90 90 90 90 86 84 85 89 91 90 90 89 91 92 92 91 89 88 87 89 86 87 85 78 70 68 66 60 52

GFSFLT2_250_spd_171.txt.gz
Wind_Speed
37 37 36 37 37 38 40 38 38 38 40 39 42 43 41 42 44 43 42 41 40 40 40 39 38 38 39 40 41 40 39 37
38 36 36 36 36 35 35 33 34 35 33 35 37 41 42 41 41 38 39 40 41 42 43 42 42 43 43 43 41 41 41 38
40 36 38 38 34 33 31 29 30 29 30 34 36 36 38 38 35 34 33 36 37 38 41 42 42 43 45 44 46 44 43 43
40 39 39 40 36 34 32 35 30 28 32 32 34 38 37 37 38 36 33 32 34 36 38 41 42 43 45 47 47 48 48 48
42 44 43 39 41 39 38 35 33 33 31 35 32 30 31 33 37 37 36 34 38 37 39 43 44 47 47 48 49 49 50 51
45 46 44 41 44 42 38 35 39 37 39 36 42 40 40 34 38 37 40 43 44 46 47 45 48 51 54 53 53 53 54 55
46 44 43 46 48 45 42 42 37 41 43 45 45 47 47 44 40 37 38 38 44 46 48 53 56 58 58 57 60 61 61 60
42 41 45 47 48 50 47 47 47 44 46 46 53 53 53 55 50 49 46 42 47 45 48 51 52 54 57 59 58 59 60 63
37 36 39 44 49 51 54 55 50 48 50 55 52 57 59 57 52 53 56 50 45 43 44 48 49 47 49 50 53 57 60 62
40 42 41 46 50 56 54 45 45 50 54 54 59 56 60 56 53 52 54 53 52 46 46 46 48 46 46 48 48 51 55 59
44 50 52 50 46 47 46 47 49 52 59 62 61 62 58 59 53 55 57 55 56 56 51 46 46 47 49 49 50 48 49 51
53 57 50 50 54 50 53 55 55 58 58 59 60 59 58 56 58 60 59 59 63 61 58 55 55 52 53 51 53 53 52 52
60 57 57 58 55 57 57 56 56 58 57 59 62 63 58 58 61 64 65 63 65 65 65 64 63 59 56 57 58 58 57 56
70 71 67 64 61 64 67 66 60 61 60 67 71 69 66 65 65 67 68 71 72 69 70 71 66 67 62 60 63 67 61 62
69 71 73 69 71 75 75 74 72 66 67 66 64 66 66 65 68 70 74 73 72 73 75 75 70 71 69 66 69 67 68 68
70 72 74 73 73 71 73 74 69 70 71 72 71 71 72 74 74 75 75 76 77 78 80 74 72 72 74 73 76 72 70 68
78 77 80 82 78 76 73 73 75 75 77 78 79 78 77 78 79 78 79 78 80 84 79 77 76 76 76 81 83 78 77 73
86 85 86 86 88 85 83 84 85 82 81 82 84 87 89 88 83 81 82 83 83 83 80 79 81 83 84 84 83 81 82 82
88 87 91 90 88 88 88 88 88 87 88 89 89 88 89 90 90 88 86 85 85 84 84 84 86 86 87 87 86 87 86 87
91 88 91 95 95 93 92 90 88 90 90 93 94 91 92 93 91 91 93 92 90 91 93 95 95 95 94 93 93 95 95 92